Location: Ipswich
(52.0579°N, 1.1528°E)
Time: 21:41:33
(UTC+01:00)

ISS - Pass Details

Date: 15 May 2026
Orbit: 414 x 424 km, 51.6° (Epoch: 15 May)

Event Time Altitude Azimuth Distance (km) Brightness Sun altitude
Rises 00:44:10 0° 282° (WNW) 2,357 0.2 -19.1°
Reaches altitude 10° 00:46:25 10° 271° (W) 1,493 -0.9 -19.1°
Enters shadow 00:47:15 15° 263° (W) 1,207 -1.5 -19.1°
